Fort Dodge, IA

8:55 PM CDT on April 26, 2017 (GMT -0500)
Fort Dodge Regional

Weather History for KFOD - August, 2013

Change the Weather History Date:

Sunday, August 25, 2013

  Actual Average Record
Temperature  
Mean Temperature 83 °F -  
Max Temperature 95 °F 82 °F 96 °F (2003)
Min Temperature 71 °F 58 °F 43 °F (1958)
Cooling Degree Days 18    
Growing Degree Days 33 (Base 50)    
Moisture  
Dew Point 70 °F    
Average Humidity 67    
Maximum Humidity 88    
Minimum Humidity 47    
Precipitation  
Precipitation 0.00 in - - ()
Sea Level Pressure  
Sea Level Pressure 30.09 in    
Wind  
Wind Speed 13 mph (SSW)    
Max Wind Speed 21 mph    
Max Gust Speed 28 mph    
Visibility 10 miles    
Events      
Averages and records for this station are not official NWS values.
T = Trace of Precipitation, MM = Missing Value Source: NWS Daily Summary

Daily Weather History Graph

Daily Weather History Graph

Search for Another Location

Airport or City:

Trip Planner

Search our weather history database for the weather conditions in past years. The results will help you decide how hot, cold, wet, or windy it might be!

Date:

Astronomy

Aug. 25, 2013 Rise Set
Actual Time 6:34 AM CDT 8:02 PM CDT
Civil Twilight 6:05 AM CDT 8:31 PM CDT
Nautical Twilight 5:29 AM CDT 9:06 PM CDT
Astronomical Twilight 4:51 AM CDT 9:44 PM CDT
Moon 10:25 PM CDT (8/25) 11:45 AM CDT (8/25)
Length of Visible Light 14h 26m
Length of Day
13h 27m
Waning Gibbous, 75% of the Moon is Illuminated
Aug 25
Waning Gibbous
Aug 28
Last Quarter
Sep 5
New
Sep 12
First Quarter
Sep 19
Full

Hourly Weather History & Observations

Time (CDT) Temp. Heat Index Dew Point Humidity Pressure Visibility Wind Dir Wind Speed Gust Speed Precip Events Conditions
12:15 AM 77.0 °F - 68.0 °F 74% 30.08 in 10.0 mi South 11.5 mph 19.6 mph N/A   Clear
12:35 AM 77.0 °F - 68.0 °F 74% 30.08 in 10.0 mi South 12.7 mph 18.4 mph N/A   Clear
12:55 AM 75.2 °F - 68.0 °F 78% 30.08 in 10.0 mi South 11.5 mph 17.3 mph N/A   Clear
1:15 AM 75.2 °F - 68.0 °F 78% 30.08 in 10.0 mi South 12.7 mph 20.7 mph N/A   Clear
1:35 AM 75.2 °F - 68.0 °F 78% 30.08 in 10.0 mi South 15.0 mph 19.6 mph N/A   Clear
1:55 AM 75.2 °F - 68.0 °F 78% 30.08 in 10.0 mi SSW 12.7 mph 18.4 mph N/A   Clear
2:15 AM 75.2 °F - 68.0 °F 78% 30.09 in 10.0 mi South 11.5 mph - N/A   Clear
2:35 AM 73.4 °F - 68.0 °F 83% 30.09 in 10.0 mi South 11.5 mph - N/A   Clear
2:55 AM 73.4 °F - 68.0 °F 83% 30.10 in 10.0 mi South 10.4 mph - N/A   Clear
3:15 AM 73.4 °F - 68.0 °F 83% 30.10 in 10.0 mi South 6.9 mph - N/A   Clear
3:35 AM 73.4 °F - 68.0 °F 83% 30.10 in 10.0 mi South 9.2 mph - N/A   Clear
3:55 AM 73.4 °F - 68.0 °F 83% 30.10 in 10.0 mi South 11.5 mph - N/A   Clear
4:15 AM 73.4 °F - 66.2 °F 78% 30.11 in 10.0 mi South 10.4 mph - N/A   Clear
4:35 AM 73.4 °F - 66.2 °F 78% 30.11 in 10.0 mi South 10.4 mph - N/A   Clear
4:55 AM 73.4 °F - 66.2 °F 78% 30.11 in 10.0 mi South 11.5 mph - N/A   Clear
5:15 AM 73.4 °F - 66.2 °F 78% 30.12 in 10.0 mi South 12.7 mph 16.1 mph N/A   Clear
5:35 AM 73.4 °F - 66.2 °F 78% 30.12 in 10.0 mi South 10.4 mph - N/A   Clear
5:55 AM 71.6 °F - 66.2 °F 83% 30.12 in 10.0 mi South 10.4 mph - N/A   Clear
6:15 AM 71.6 °F - 66.2 °F 83% 30.12 in 10.0 mi SSW 9.2 mph - N/A   Clear
6:35 AM 71.6 °F - 66.2 °F 83% 30.13 in 8.0 mi SSW 10.4 mph - N/A   Clear
6:55 AM 71.6 °F - 66.2 °F 83% 30.13 in 8.0 mi SSW 9.2 mph - N/A   Clear
7:15 AM 71.6 °F - 66.2 °F 83% 30.14 in 7.0 mi SSW 10.4 mph - N/A   Clear
7:35 AM 71.6 °F - 68.0 °F 88% 30.14 in 8.0 mi South 11.5 mph 17.3 mph N/A   Clear
7:55 AM 73.4 °F - 68.0 °F 83% 30.14 in 9.0 mi South 12.7 mph - N/A   Clear
8:15 AM 75.2 °F - 68.0 °F 78% 30.13 in 9.0 mi SSW 13.8 mph 19.6 mph N/A   Clear
8:35 AM 75.2 °F - 69.8 °F 83% 30.13 in 10.0 mi SSW 15.0 mph 20.7 mph N/A   Clear
8:55 AM 78.8 °F - 69.8 °F 74% 30.14 in 10.0 mi SSW 12.7 mph 20.7 mph N/A   Clear
9:15 AM 78.8 °F - 69.8 °F 74% 30.13 in 10.0 mi SSW 15.0 mph 20.7 mph N/A   Clear
9:35 AM 80.6 °F 83.9 °F 69.8 °F 70% 30.12 in 10.0 mi SSW 15.0 mph 23.0 mph N/A   Clear
9:55 AM 80.6 °F 83.9 °F 69.8 °F 70% 30.12 in 10.0 mi SSW 13.8 mph 20.7 mph N/A   Clear
10:15 AM 82.4 °F 86.3 °F 69.8 °F 66% 30.12 in 10.0 mi SSW 17.3 mph 23.0 mph N/A   Clear
10:35 AM 84.2 °F 88.4 °F 69.8 °F 62% 30.12 in 10.0 mi SSW 16.1 mph 21.9 mph N/A   Clear
10:55 AM 86.0 °F 91.8 °F 71.6 °F 62% 30.12 in 10.0 mi SSW 16.1 mph 24.2 mph N/A   Clear
11:15 AM 87.8 °F 92.6 °F 69.8 °F 55% 30.11 in 10.0 mi SSW 17.3 mph 27.6 mph N/A   Clear
11:35 AM 87.8 °F 92.6 °F 69.8 °F 55% 30.11 in 10.0 mi SW 15.0 mph 26.5 mph N/A   Clear
11:55 AM 89.6 °F 94.7 °F 69.8 °F 52% 30.10 in 10.0 mi SSW 18.4 mph 24.2 mph N/A   Clear
12:15 PM 89.6 °F 96.2 °F 71.6 °F 55% 30.10 in 10.0 mi SSW 19.6 mph 24.2 mph N/A   Clear
12:35 PM 89.6 °F 96.2 °F 71.6 °F 55% 30.10 in 10.0 mi SSW 13.8 mph 21.9 mph N/A   Clear
12:55 PM 91.4 °F 98.4 °F 71.6 °F 52% 30.09 in 10.0 mi SSW 16.1 mph 24.2 mph N/A   Clear
1:15 PM 91.4 °F 98.4 °F 71.6 °F 52% 30.09 in 10.0 mi SW 16.1 mph - N/A   Clear
1:35 PM 91.4 °F 98.4 °F 71.6 °F 52% 30.08 in 10.0 mi SSW 18.4 mph 25.3 mph N/A   Clear
1:55 PM 93.2 °F 100.5 °F 71.6 °F 49% 30.08 in 10.0 mi SSW 16.1 mph 21.9 mph N/A   Clear
2:15 PM 93.2 °F 100.5 °F 71.6 °F 49% 30.07 in 10.0 mi SSW 18.4 mph - N/A   Clear
2:35 PM 93.2 °F 100.5 °F 71.6 °F 49% 30.07 in 10.0 mi South 17.3 mph 23.0 mph N/A   Clear
2:55 PM 93.2 °F 100.5 °F 71.6 °F 49% 30.07 in 10.0 mi South 19.6 mph 25.3 mph N/A   Clear
3:15 PM 93.2 °F 100.5 °F 71.6 °F 49% 30.06 in 10.0 mi South 19.6 mph 24.2 mph N/A   Clear
3:35 PM 93.2 °F 100.5 °F 71.6 °F 49% 30.06 in 10.0 mi SSW 15.0 mph 25.3 mph N/A   Clear
3:55 PM 95.0 °F 103.2 °F 71.6 °F 47% 30.06 in 10.0 mi South 17.3 mph - N/A   Clear
4:15 PM 93.2 °F 100.5 °F 71.6 °F 49% 30.06 in 10.0 mi SSW 19.6 mph 27.6 mph N/A   Clear
4:35 PM 93.2 °F 100.5 °F 71.6 °F 49% 30.05 in 10.0 mi South 20.7 mph 26.5 mph N/A   Clear
4:55 PM 93.2 °F 100.5 °F 71.6 °F 49% 30.05 in 10.0 mi South 18.4 mph 24.2 mph N/A   Clear
5:15 PM 93.2 °F 100.5 °F 71.6 °F 49% 30.05 in 10.0 mi SSW 17.3 mph 27.6 mph N/A   Clear
5:35 PM 93.2 °F 100.5 °F 71.6 °F 49% 30.05 in 10.0 mi SSW 20.7 mph 26.5 mph N/A   Clear
5:55 PM 91.4 °F 98.4 °F 71.6 °F 52% 30.05 in 10.0 mi SSW 19.6 mph 24.2 mph N/A   Clear
6:15 PM 91.4 °F 98.4 °F 71.6 °F 52% 30.05 in 10.0 mi South 16.1 mph 21.9 mph N/A   Clear
6:35 PM 91.4 °F 98.4 °F 71.6 °F 52% 30.05 in 10.0 mi SSW 13.8 mph - N/A   Clear
6:55 PM 89.6 °F 96.2 °F 71.6 °F 55% 30.05 in 10.0 mi SSW 16.1 mph - N/A   Clear
7:15 PM 89.6 °F 96.2 °F 71.6 °F 55% 30.04 in 10.0 mi SSW 11.5 mph 19.6 mph N/A   Clear
7:35 PM 87.8 °F 93.8 °F 71.6 °F 58% 30.05 in 10.0 mi SSW 12.7 mph - N/A   Clear
7:55 PM 86.0 °F 91.8 °F 71.6 °F 62% 30.05 in 10.0 mi South 10.4 mph - N/A   Clear
8:15 PM 84.2 °F 89.6 °F 71.6 °F 66% 30.05 in 10.0 mi SSW 10.4 mph - N/A   Clear
8:35 PM 84.2 °F 89.6 °F 71.6 °F 66% 30.06 in 10.0 mi SSW 8.1 mph - N/A   Clear
8:55 PM 82.4 °F 87.2 °F 71.6 °F 70% 30.07 in 10.0 mi SSW 10.4 mph - N/A   Clear
9:15 PM 82.4 °F 87.2 °F 71.6 °F 70% 30.07 in 10.0 mi SSW 10.4 mph - N/A   Clear
9:35 PM 80.6 °F 84.6 °F 71.6 °F 74% 30.08 in 10.0 mi SSW 9.2 mph - N/A   Clear
9:55 PM 80.6 °F 84.6 °F 71.6 °F 74% 30.09 in 10.0 mi SSW 10.4 mph - N/A   Clear
10:15 PM 80.6 °F 83.9 °F 69.8 °F 70% 30.08 in 10.0 mi South 10.4 mph - N/A   Clear
10:35 PM 80.6 °F 83.9 °F 69.8 °F 70% 30.09 in 10.0 mi SSW 10.4 mph 17.3 mph N/A   Clear
10:55 PM 78.8 °F - 71.6 °F 78% 30.09 in 10.0 mi SSW 9.2 mph - N/A   Clear
11:15 PM 78.8 °F - 71.6 °F 78% 30.09 in 10.0 mi SSW 10.4 mph - N/A   Clear
11:35 PM 78.8 °F - 71.6 °F 78% 30.09 in 10.0 mi SSW 11.5 mph - N/A   Clear
11:55 PM 78.8 °F - 71.6 °F 78% 30.09 in 10.0 mi SSW 11.5 mph - N/A   Clear